Flag for U.S.A. Weather past 2 weeks in Charleston, West Virginia, U.S.A.

Now
79 °F

Broken clouds.


Feels Like: 81 °F
Forecast: 67 / 81 °F
Wind: 3 mph from North

Location: Yeager Airport

Current Time: Jul 4, 2015 at 7:01:22 PM

Latest Report: Jul 4, 2015 at 5:54 PM


Visibility: 8 mi

Pressure: 29.97 "Hg

Humidity: 62%

Dew point: 65 °F

Location of CharlestonLocation

Historic Weather in Charleston — Graph

°F

Charleston temperature yesterday

Maximum temperature yesterday: 77 °F (at 11:54 AM)
Minimum temperature yesterday: 65 °F (at 12:54 AM)
Average temperature yesterday: 70 °F

Past Weeks' High & Low Weather Summary

 TemperatureHumidityPressure
High89 °F (Jun 21, 5:54 PM)97% (Jun 20, 4:54 AM)30.14 "Hg (Jun 20, 4:54 AM)
Low55 °F (Jun 29, 5:54 AM)45% (Jun 24, 5:54 PM)29.70 "Hg (Jun 27, 3:54 PM)
Average73 °F78%29.92 "Hg
* Reported Jun 19 5:54 PM — Jul 4 5:54 PM, Charleston, Weather by CustomWeather, © 2015

Note: Actual official high and low records may vary slightly from our data, if they occured in-between our weather recording intervals... More about our weather records

Advertising

Charleston weather history for previous 24 hours

 ConditionsComfort  
Time TempWeatherWind HumidityBarometerVisibility
5:54 PM
Sat, Jul 4
79 °FBroken clouds.3 mph62%29.97 "Hg8 mi
4:54 PM79 °FScattered clouds.6 mph62%29.97 "Hg9 mi
3:54 PM80 °FScattered clouds.No wind60%29.97 "Hg9 mi
2:54 PM78 °FBroken clouds.No wind60%29.97 "Hg8 mi
1:54 PM76 °FPartly sunny.3 mph64%29.98 "Hg8 mi
12:54 PM77 °FBroken clouds.No wind60%29.97 "Hg9 mi
11:54 AM74 °FBroken clouds.3 mph71%29.97 "Hg9 mi
10:54 AM73 °FBroken clouds.5 mph76%29.96 "Hg6 mi
9:54 AM69 °FFog.5 mph87%29.96 "Hg5 mi
8:54 AM68 °FFog.3 mph90%29.94 "Hg4 mi
7:54 AM68 °FLight rain. Fog.5 mph90%29.92 "Hg4 mi
6:54 AM68 °FStrong thunderstorms. Fog.8 mph93%29.90 "Hg4 mi
5:54 AM69 °FLight rain. Low clouds.8 mph90%29.88 "Hg10 mi
4:54 AM69 °FLight rain. Low clouds.8 mph90%29.87 "Hg10 mi
3:54 AM69 °FLight rain. Partly cloudy.8 mph93%29.85 "Hg10 mi
2:54 AM69 °FHeavy rain. Fog.6 mph93%29.86 "Hg6 mi
1:54 AM70 °FLight rain. Partly cloudy.3 mph93%29.85 "Hg10 mi
12:54 AM71 °FLight rain. Partly cloudy.5 mph90%29.85 "Hg10 mi
11:54 PM
Fri, Jul 3
70 °FLight rain. Passing clouds.6 mph93%29.86 "Hg10 mi
10:54 PM71 °FFog.No wind93%29.85 "Hg4 mi
9:54 PM71 °FFog.No wind96%29.83 "Hg1 mi
8:54 PM71 °FFog.No wind96%29.83 "Hg6 mi
7:54 PM73 °FPartly sunny.No wind90%29.83 "Hg10 mi
Weather by CustomWeather, © 2015

See weather overviewHow to use our weather pages